Вернуться в каталог

STARLINK-32140

АктивенСвязьVLEO
NORAD 61511·PAYLOAD·🇺🇸 United States

Запущен Oct 15, 2024 с Cape Canaveral Space Force Station

Loading…

Ближайшие Пролёты (ближайшие 24 часа)

TLE

СвежийSource: CelesTrak SupGP

Эпоха: Sep 15, 2026, 03:31 UTC

1 61511C 24183C   26258.14701389  .00067896  00000+0  21825-2 0  2581
2 61511  53.1604 340.8033 0001207  77.7445 235.6660 15.31680447    18

Отслеживайте STARLINK-32140 в реальном времени с AllMySat

Download on the App Store